This demonstration page uses our WeatherBlox Daily Observations layout. Learn more.

40.92945, -100.16068

Hourly Observations for January 8, 2018

Temp ( °F °C ) Dew Point ( °F °C ) Humidity (%) Winds ( mph kmh ) Pressure ( in mb ) Visibility ( mi km ) Precip ( " mm )
12:15 am 00:15 Clear 30 -1 27 -2.7 88 88 WNW 9 15 30.18 1022 10 16.0934 0 0
12:35 am 00:35 Clear 30 -1.1 27 -3 87 87 NW 7 11 30.18 1022 10 16.0934 0 0
12:55 am 00:55 Clear 29 -1.5 26 -3.1 89 89 NNW 5 7 30.18 1022 10 16.0934 0 0
1:15 am 01:15 Clear 28 -2 26 -3.6 89 89 NW 5 7 30.21 1023 10 16.0934 0 0
1:35 am 01:35 Clear 28 -2.2 26 -3.6 90 90 NNW 5 7 30.21 1023 10 16.0934 0 0
1:55 am 01:55 Clear 28 -2.5 25 -4.1 89 89 W 3 6 30.21 1023 10 16.0934 0 0
2:15 am 02:15 Clear 26 -3.2 24 -4.6 90 90 W 6 9 30.21 1023 10 16.0934 0 0
2:35 am 02:35 Clear 26 -3.1 24 -4.4 91 91 WNW 6 9 30.21 1023 10 16.0934 0 0
2:55 am 02:55 Clear 26 -3.5 23 -5 89 89 NW 7 11 30.21 1023 10 16.0934 0 0
3:15 am 03:15 Clear 26 -3.6 23 -5.1 89 89 WNW 8 13 30.21 1023 10 16.0934 0 0
3:35 am 03:35 Clear 26 -3.5 23 -5.1 89 89 NW 7 11 30.21 1023 10 16.0934 0 0
3:55 am 03:55 Clear 25 -3.8 22 -5.3 89 89 WNW 9 15 30.21 1023 10 16.0934 0 0
4:15 am 04:15 Clear 25 -3.9 22 -5.4 89 89 WNW 7 11 30.18 1022 10 16.0934 0 0
4:35 am 04:35 Clear 26 -3.5 23 -4.9 90 90 W 6 9 30.21 1023 10 16.0934 0 0
4:55 am 04:55 Clear 26 -3.6 23 -5 90 90 WNW 8 13 30.21 1023 10 16.0934 0 0
5:15 am 05:15 Clear 24 -4.3 22 -5.8 89 89 W 7 11 30.21 1023 10 16.0934 0 0
5:35 am 05:35 Clear 24 -4.5 22 -5.7 91 91 W 5 7 30.21 1023 10 16.0934 0 0
5:55 am 05:55 Clear 24 -4.5 22 -5.6 92 92 W 7 11 30.27 1025 10 16.0934 0 0
6:15 am 06:15 Clear 24 -4.6 22 -5.8 91 91 WNW 7 11 30.27 1025 10 16.0934 0 0
6:35 am 06:35 Clear 24 -4.6 22 -5.7 92 92 W 7 11 30.27 1025 10 16.0934 0 0
6:55 am 06:55 Clear 24 -4.6 22 -5.8 91 91 W 5 7 30.27 1025 10 16.0934 0 0
7:15 am 07:15 Clear 22 -5.5 19 -7 89 89 WNW 3 6 30.27 1025 10 16.0934 0 0
7:35 am 07:35 Clear 23 -4.8 21 -6.1 91 91 Calm 30.27 1025 10 16.0934 0 0
7:55 am 07:55 Clear 24 -4.3 22 -5.6 91 91 WNW 3 6 30.24 1024 10 16.0934 0 0
8:15 am 08:15 Sunny 23 -4.9 20 -6.4 89 89 W 8 13 30.27 1025 10 16.0934 0 0
8:35 am 08:35 Sunny 25 -3.8 23 -5.2 90 90 Calm 30.21 1023 10 16.0934 0 0
8:55 am 08:55 Sunny 26 -3.1 24 -4.7 89 89 W 3 6 30.21 1023 10 16.0934 0 0
9:15 am 09:15 Sunny 26 -3.3 23 -4.9 89 89 Calm 30.21 1023 10 16.0934 0 0
9:35 am 09:35 Sunny 28 -2.4 25 -4 89 89 Calm 30.21 1023 10 16.0934 0 0
9:55 am 09:55 Sunny 29 -1.5 26 -3.5 86 86 Calm 30.18 1022 10 16.0934 0 0
10:15 am 10:15 Sunny 31 -0.4 27 -2.6 85 85 Calm 30.18 1022 10 16.0934 0 0
10:35 am 10:35 undefined 33 0.7 29 -1.5 85 85 Calm 30.18 1022 N/A 0 0
10:55 am 10:55 undefined N/A N/A N/A undefined N/A N/A N/A 0 0
11:15 am 11:15 Sunny 37 2.8 31 -0.4 80 80 Calm 30.15 1021 10 16.0934 0 0
11:35 am 11:35 Sunny 39 4 32 0 75 75 Calm 30.15 1021 10 16.0934 0 0
11:55 am 11:55 Sunny 42 5.5 32 0.1 69 69 Calm 30.09 1019 10 16.0934 0 0
12:15 pm 12:15 Sunny 43 5.9 33 0.4 68 68 Calm 30.09 1019 10 16.0934 0 0
12:35 pm 12:35 Sunny 45 7.1 33 0.8 65 65 SSE 3 6 30.06 1018 10 16.0934 0 0
12:55 pm 12:55 Sunny 47 8.5 34 1 60 60 S 3 6 30.06 1018 10 16.0934 0 0
1:15 pm 13:15 Sunny 50 9.9 33 0.5 52 52 SSW 7 11 30.06 1018 10 16.0934 0 0
1:35 pm 13:35 Sunny 50 10.2 33 0.3 51 51 SSW 6 9 30.06 1018 10 16.0934 0 0
1:55 pm 13:55 Sunny 50 10.1 32 0 50 50 SSW 8 13 30 1016 10 16.0934 0 0
2:15 pm 14:15 Sunny 50 10.2 32 0.2 50 50 S 8 13 30 1016 10 16.0934 0 0
2:35 pm 14:35 Sunny 50 9.8 33 0.8 54 54 S 9 15 30.03 1017 10 16.0934 0 0
2:55 pm 14:55 Sunny 49 9.2 33 0.6 55 55 S 9 15 30.03 1017 10 16.0934 0 0
3:15 pm 15:15 Sunny 48 9 33 0.6 56 56 SSE 7 11 30.03 1017 10 16.0934 0 0
3:35 pm 15:35 Sunny 47 8.5 33 0.6 58 58 SSE 6 9 30 1016 10 16.0934 0 0
3:55 pm 15:55 Sunny 47 8.5 32 0 55 55 SSE 5 7 30 1016 10 16.0934 0 0
4:15 pm 16:15 Sunny 47 8.1 33 0.5 59 59 SSE 6 9 30 1016 10 16.0934 0 0
4:35 pm 16:35 Sunny 47 8.1 32 0.1 57 57 ESE 6 9 30 1016 10 16.0934 0 0
4:55 pm 16:55 Sunny 43 6.1 33 0.4 67 67 ESE 6 9 30.03 1017 10 16.0934 0 0
5:15 pm 17:15 Sunny 44 6.6 33 0.3 64 64 SE 5 7 30 1016 10 16.0934 0 0
5:35 pm 17:35 Clear 42 5.5 32 0.1 69 69 SE 3 6 30.03 1017 10 16.0934 0 0
5:55 pm 17:55 Clear 43 6.3 32 0 64 64 SE 3 6 30.03 1017 10 16.0934 0 0
6:15 pm 18:15 Clear 44 6.5 31 -0.7 60 60 SSE 3 6 30 1016 10 16.0934 0 0
6:35 pm 18:35 Clear 43 6.3 30 -1.1 59 59 SE 3 6 30.03 1017 10 16.0934 0 0
6:55 pm 18:55 Clear 46 7.5 29 -1.5 53 53 ESE 3 6 30 1016 10 16.0934 0 0
7:15 pm 19:15 Clear 44 6.6 29 -1.4 57 57 SE 3 6 30 1016 10 16.0934 0 0
7:35 pm 19:35 Clear 44 6.7 29 -1.5 56 56 SSE 7 11 30 1016 10 16.0934 0 0
7:55 pm 19:55 Clear 45 7 29 -1.5 55 55 SSE 9 15 30 1016 10 16.0934 0 0
8:15 pm 20:15 Clear 44 6.8 29 -1.5 56 56 SSE 8 13 30 1016 10 16.0934 0 0
8:35 pm 20:35 Clear 43 6.1 29 -1.5 59 59 S 5 7 30.03 1017 10 16.0934 0 0
8:55 pm 20:55 Clear 44 6.5 28 -2 55 55 SSE 3 6 30 1016 10 16.0934 0 0
9:15 pm 21:15 Clear 43 6.1 29 -1.9 57 57 S 6 9 30.03 1017 10 16.0934 0 0
9:35 pm 21:35 Clear 43 6.3 28 -2 56 56 S 8 13 30.03 1017 10 16.0934 0 0
9:55 pm 21:55 Clear 42 5.5 29 -1.9 59 59 S 7 11 30.03 1017 10 16.0934 0 0
10:15 pm 22:15 Clear 41 5.1 29 -1.7 62 62 S 7 11 30 1016 10 16.0934 0 0
10:35 pm 22:35 Clear 41 5.2 28 -2 60 60 SSE 6 9 30 1016 10 16.0934 0 0
10:55 pm 22:55 Clear 41 5.1 28 -2 60 60 S 7 11 30 1016 10 16.0934 0 0
11:15 pm 23:15 Clear 41 4.8 28 -2 62 62 SSE 8 13 30 1016 10 16.0934 0 0
11:35 pm 23:35 Clear 40 4.7 28 -2 62 62 S 8 13 30 1016 10 16.0934 0 0
11:55 pm 23:55 Clear 40 4.5 28 -2 63 63 S 8 13 30 1016 10 16.0934 0 0

Powered by AerisWeather